COSMOS 1670 DEB, 44569

Orbit data source: Space-Track

COSMOS 1670 DEB, 44569 is space debris in LEO originally from a launch on Thu, 01 Aug 1985 UTC launched from the Tyuratam Missile And Space Complex (TTMTR). Debris objects in space refer to the collection of defunct objects orbiting the Earth. Examples of debris include non-operational satellites, rocket bodies, and fragments generated from explosions, collisions, or faulty payload assembly.

Loading next visibility...
Identifier
44569, 1985-064F
Orbit
LEO
Country
Flag of CISCIS
Related business
Manufacturer
Unknown
Mission
Spacecraft
Bus & Motor
Unknown
Mass
Unknown
Launch date (UTC)
1985-08-01 (41 years ago)
Launch vehicle
Unknown
Launch site
Tyuratam Missile And Space Complex (TTMTR)
Object type
Payload
Rocket body
Debris
Shape & HBR
Unknown shape, 0.1 m
Radar Cross Section
Small (<0.1 m²)

Expand to show TLE details & history
Last TLE update: 19 hours ago

TLE from 19 hours ago
0 COSMOS 1670 DEB
1 44569U 85064F   26105.46140422  .00011428  00000-0  22052-2 0  9997
2 44569  64.8993 168.9607 0030315 342.6171  37.3434 14.63469705 96961
Epoch: 2026-04-15T11:04Z
TLE epoch observation values (Epoch: 2026-04-15T11:04:25.324Z)
Latitude
18.20762°
Longitude
168.04781°
Altitude
666.441 km
Speed
7.535 km/s
True Right ascension
11h 51m 06s
True Declination
18° 06' 16"
Sunlit
Object was in full shadow at epoch
Visualization orbit readout
Latitude
Unknown
Longitude
Unknown
Altitude
Unknown
Speed
Unknown
Apparent Right ascension
Unknown
Apparent Declination
Unknown
Sunlit
N/A
Visualization observer readout
Local Sidereal Time
12:40:15
Azimuth
Unknown
Elevation
Unknown
Doppler factor
Unknown
Orbital elements
Apogee altitude
701.961 km
Perigee altitude
659.164 km
Semi-major axis
7,058.699 km
Eccentricity
0.00303
Inclination
64.8993°
RAAN
168.9607°
Arg. of periapsis
342.6171°
True anomaly
37.55476°
Mean anomaly
37.3434°
Eccentric anomaly
37.44901°
Mean motion
3.65979 °/min
Orbital period
98.37 mins
BSTAR
0.0022052
Loading maneuver chart data...
Computing Atmospheric mass density...
Loading historical data...
Loading historical data...
Loading historical data...
Loading historical data...
Loading historical data...
Loading historical data...
Loading historical data...

Documentation

Showing up to 5 results
|